This is the latest recevied weather packets stored in our database for station/object WA0GMH-1. If no packets are shown the sender has not sent any weather packets the latest 10 day(s).
| Time | Temp. | Humidity | Pressure | Rain* | Wind** | Luminosity | Snow |
|---|---|---|---|---|---|---|---|
| 1777798834 | 12.78° C | 7% | 1009.7 hPa | 0 mm | - | - | - |
| 1777798431 | 12.78° C | 7% | 1009.7 hPa | 0 mm | - | - | - |
| 1777798030 | 12.78° C | 6% | 1009.8 hPa | 0 mm | - | - | - |
| 1777797627 | 12.78° C | 6% | 1009.6 hPa | 0 mm | - | - | - |
| 1777797225 | 12.78° C | 4% | 1009.6 hPa | 0 mm | - | - | - |
| 1777796822 | 12.78° C | 3% | 1009.4 hPa | 0 mm | - | - | - |
| 1777796421 | 13.33° C | 2% | 1009.6 hPa | 0 mm | - | - | - |
| 1777796018 | 13.33° C | 1% | 1009.4 hPa | 0 mm | - | - | - |
| 1777795616 | 13.33° C | 100% | 1009.5 hPa | 0 mm | - | - | - |
| 1777795213 | 13.33° C | 85% | 1009.6 hPa | 0 mm | - | - | - |
| 1777794812 | 13.33° C | 85% | 1009.6 hPa | 0 mm | - | - | - |
| 1777794409 | 13.33° C | 84% | 1009.7 hPa | 0 mm | - | - | - |
| 1777794007 | 13.33° C | 84% | 1009.5 hPa | 0 mm | - | - | - |
| 1777793604 | 13.33° C | 84% | 1009.6 hPa | 0 mm | - | - | - |
| 1777793203 | 13.33° C | 84% | 1009.5 hPa | 0 mm | - | - | - |
| 1777792800 | 13.33° C | 84% | 1009.6 hPa | 0 mm | - | - | - |
| 1777792398 | 13.33° C | 85% | 1009.6 hPa | 0 mm | - | - | - |
| 1777791995 | 13.33° C | 85% | 1009.6 hPa | 0 mm | - | - | - |
| 1777791594 | 13.33° C | 85% | 1009.7 hPa | 0 mm | - | - | - |
| 1777791191 | 13.33° C | 85% | 1009.6 hPa | 0 mm | - | - | - |
| 1777790789 | 13.33° C | 84% | 1009.6 hPa | 0 mm | - | - | - |
| 1777790386 | 13.33° C | 84% | 1009.6 hPa | 0 mm | - | - | - |
| 1777789985 | 13.33° C | 84% | 1009.3 hPa | 0 mm | - | - | - |
| 1777789582 | 13.89° C | 84% | 1009.4 hPa | 0 mm | - | - | - |
| 1777789180 | 13.89° C | 83% | 1009.7 hPa | 0 mm | - | - | - |
* Rain since midnight (hover to see other rain measurements)
** Current wind speed in m/s (hover to see current wind gust speed)